Satellite: MET-2/21
Catalog number: 22782
Epoch time: 08137.53565019
Element set: 0145
Inclination: 082.5455 deg
RA of node: 136.6881 deg
Eccentricity: 0.0023245
Arg of perigee: 022.8111 deg
Mean anomaly: 337.4069 deg
Mean motion: 13.83627473 rev/day
Decay rate: 3.5e-07 rev/day^2
Epoch rev: 74275
Checksum: 302
Satellite: OKEAN-4
Catalog number: 23317
Epoch time: 08137.74144169
Element set: 588
Inclination: 082.5412 deg
RA of node: 344.4157 deg
Eccentricity: 0.0020736
Arg of perigee: 228.3885 deg
Mean anomaly: 131.5568 deg
Mean motion: 14.82609327 rev/day
Decay rate: 1.01e-06 rev/day^2
Epoch rev: 73362
Checksum: 304
Satellite: NOAA-14
Catalog number: 23455
Epoch time: 08137.84131537
Element set: 0146
Inclination: 098.9461 deg
RA of node: 210.0636 deg
Eccentricity: 0.0008763
Arg of perigee: 229.0617 deg
Mean anomaly: 130.9795 deg
Mean motion: 14.13739783 rev/day
Decay rate: -1.28e-06 rev/day^2
Epoch rev: 68992
Checksum: 328
Satellite: SICH-1
Catalog number: 23657
Epoch time: 08137.74305860
Element set: 0386
Inclination: 082.5256 deg
RA of node: 125.3914 deg
Eccentricity: 0.0022471
Arg of perigee: 220.4118 deg
Mean anomaly: 139.5438 deg
Mean motion: 14.81577239 rev/day
Decay rate: 1.88e-06 rev/day^2
Epoch rev: 68556
Checksum: 317
Satellite: NOAA-15
Catalog number: 25338
Epoch time: 08137.89448827
Element set: 0467
Inclination: 098.5528 deg
RA of node: 130.5508 deg
Eccentricity: 0.0011394
Arg of perigee: 129.3651 deg
Mean anomaly: 230.8531 deg
Mean motion: 14.24700359 rev/day
Decay rate: -3.7e-07 rev/day^2
Epoch rev: 52034
Checksum: 310
Satellite: RESURS
Catalog number: 25394
Epoch time: 08138.75794427
Element set: 928
Inclination: 098.3902 deg
RA of node: 184.1003 deg
Eccentricity: 0.0001069
Arg of perigee: 332.0814 deg
Mean anomaly: 028.0308 deg
Mean motion: 14.24159119 rev/day
Decay rate: -1.4e-07 rev/day^2
Epoch rev: 51211
Checksum: 276
Satellite: FENGYUN1
Catalog number: 25730
Epoch time: 08137.92517272
Element set: 0416
Inclination: 098.7223 deg
RA of node: 114.7717 deg
Eccentricity: 0.0019356
Arg of perigee: 263.6872 deg
Mean anomaly: 096.2093 deg
Mean motion: 14.07693494 rev/day
Decay rate: -5.10e-06 rev/day^2
Epoch rev: 46456
Checksum: 317
Satellite: OKEAN-0
Catalog number: 25860
Epoch time: 08137.54031058
Element set: 0370
Inclination: 097.7487 deg
RA of node: 129.4916 deg
Eccentricity: 0.0001731
Arg of perigee: 051.7508 deg
Mean anomaly: 308.3856 deg
Mean motion: 14.73520480 rev/day
Decay rate: 2.9e-07 rev/day^2
Epoch rev: 47473
Checksum: 302
Satellite: NOAA-16
Catalog number: 26536
Epoch time: 08137.89747793
Element set: 0935
Inclination: 099.1548 deg
RA of node: 126.3903 deg
Eccentricity: 0.0009955
Arg of perigee: 318.1280 deg
Mean anomaly: 041.9160 deg
Mean motion: 14.12479318 rev/day
Decay rate: -6.8e-07 rev/day^2
Epoch rev: 39435
Checksum: 341
Satellite: NOAA-17
Catalog number: 27453
Epoch time: 08137.85435538
Element set: 0928
Inclination: 098.5354 deg
RA of node: 203.3853 deg
Eccentricity: 0.0011683
Arg of perigee: 194.2435 deg
Mean anomaly: 165.8411 deg
Mean motion: 14.23973719 rev/day
Decay rate: 1.68e-06 rev/day^2
Epoch rev: 30634
Checksum: 326
Satellite: NOAA-18
Catalog number: 28654
Epoch time: 08137.85562989
Element set: 0430
Inclination: 098.8653 deg
RA of node: 079.1726 deg
Eccentricity: 0.0015250
Arg of perigee: 044.7592 deg
Mean anomaly: 315.4802 deg
Mean motion: 14.11161896 rev/day
Decay rate: -1.33e-06 rev/day^2
Epoch rev: 15405
Checksum: 321
/EX
SB KEPS @ AMSAT $ORB08138.M
Orbital Elements 08138.MISC
HR AMSAT ORBITAL ELEMENTS FOR MANNED AND MISCELLANEOUS SATELLITES
FROM WA5QGD FORT WORTH,TX May 17, 2008
Send Subscribe/unsubscribe to KEPS at
http://www.amsat.org/mailman/listinfo/keps
BID: ORB08138.M
TO ALL RADIO AMATEURS BT
Satellite: HUBBLE
Catalog number: 20580
Epoch time: 08137.41467609
Element set: 0141
Inclination: 028.4684 deg
RA of node: 170.4532 deg
Eccentricity: 0.0003659
Arg of perigee: 047.7326 deg
Mean anomaly: 312.3574 deg
Mean motion: 15.00377619 rev/day
Decay rate: 2.55e-06 rev/day^2
Epoch rev: 79020
Checksum: 286
Satellite: UARS
Catalog number: 21701
Epoch time: 08137.91635308
Element set: 0385
Inclination: 056.9731 deg
RA of node: 297.8103 deg
Eccentricity: 0.0090042
Arg of perigee: 119.2544 deg
Mean anomaly: 241.7559 deg
Mean motion: 15.51756597 rev/day
Decay rate: 5.557e-05 rev/day^2
Epoch rev: 91764
Checksum: 324
Satellite: PO-34
Catalog number: 25520
Epoch time: 08137.95121538
Element set: 0001
Inclination: 028.4592 deg
RA of node: 027.8970 deg
Eccentricity: 0.0005224
Arg of perigee: 302.0861 deg
Mean anomaly: 057.9224 deg
Mean motion: 15.17189318 rev/day
Decay rate: 3.59e-06 rev/day^2
Epoch rev: 52841
Checksum: 291
Satellite: ISS
Catalog number: 25544
Epoch time: 08138.85293981
Element set: 496
Inclination: 051.6402 deg
RA of node: 172.7560 deg
Eccentricity: 0.0005720
Arg of perigee: 220.4168 deg
Mean anomaly: 118.8720 deg
Mean motion: 15.76327413 rev/day
Decay rate: 7.470e-05 rev/day^2
Epoch rev: 54373
Checksum: 301
Satellite: OO-38
Catalog number: 26063
Epoch time: 08138.70024501
Element set: 212
Inclination: 100.1918 deg
RA of node: 207.7967 deg
Eccentricity: 0.0036602
Arg of perigee: 295.8674 deg
Mean anomaly: 063.8736 deg
Mean motion: 14.35835088 rev/day
Decay rate: -3.0e-07 rev/day^2
Epoch rev: 43519
Checksum: 303
Satellite: UWE-1
Catalog number: 28892
Epoch time: 08137.75607733
Element set: 0049
Inclination: 098.0989 deg
RA of node: 032.1428 deg
Eccentricity: 0.0018008
Arg of perigee: 144.5573 deg
Mean anomaly: 215.6854 deg
Mean motion: 14.59626983 rev/day
Decay rate: 6.3e-07 rev/day^2
Epoch rev: 13601
Checksum: 324
Satellite: CO-58
Catalog number: 28895
Epoch time: 08137.72486058
Element set: 22
Inclination: 098.1026 deg
RA of node: 032.4582 deg
Eccentricity: 0.0018402
Arg of perigee: 145.0158 deg
Mean anomaly: 215.2275 deg
Mean motion: 14.59666956 rev/day
Decay rate: -2.1e-07 rev/day^2
Epoch rev: 13589
Checksum: 319
Satellite: NCUBE2
Catalog number: 28897
Epoch time: 08137.28180856
Element set: 552
Inclination: 098.0998 deg
RA of node: 031.9577 deg
Eccentricity: 0.0017581
Arg of perigee: 146.7840 deg
Mean anomaly: 213.4465 deg
Mean motion: 14.59837604 rev/day
Decay rate: 1.22e-06 rev/day^2
Epoch rev: 12811
Checksum: 331
Satellite: FCAL
Catalog number: 29667
Epoch time: 08138.39402321
Element set: 956
Inclination: 051.6157 deg
RA of node: 109.9698 deg
Eccentricity: 0.0001052
Arg of perigee: 293.8925 deg
Mean anomaly: 066.2226 deg
Mean motion: 16.27993597 rev/day
Decay rate: 4.28128e-03 rev/day^2
Epoch rev: 8161
Checksum: 336
Satellite: FALCON
Catalog number: 30776
Epoch time: 08137.95469598
Element set: 0315
Inclination: 035.4353 deg
RA of node: 342.9094 deg
Eccentricity: 0.0000504
Arg of perigee: 025.9403 deg
Mean anomaly: 334.1338 deg
Mean motion: 15.02982498 rev/day
Decay rate: 2.90e-06 rev/day^2
Epoch rev: 06544
Checksum: 304
Satellite: MAST
Catalog number: 31126
Epoch time: 08138.60601815
Element set: 328
Inclination: 098.0399 deg
RA of node: 204.2587 deg
Eccentricity: 0.0095850
Arg of perigee: 066.9638 deg
Mean anomaly: 294.1650 deg
Mean motion: 14.53422597 rev/day
Decay rate: -3.7e-07 rev/day^2
Epoch rev: 5757
Checksum: 318
Satellite: CAPE1
Catalog number: 31130
Epoch time: 08138.18153110
Element set: 308
Inclination: 098.0418 deg
RA of node: 202.9333 deg
Eccentricity: 0.0103984
Arg of perigee: 070.8159 deg
Mean anomaly: 290.4250 deg
Mean motion: 14.51962066 rev/day
Decay rate: 1.29e-06 rev/day^2
Epoch rev: 5722
Checksum: 266
Satellite: CUTE1-7
Catalog number: 32785
Epoch time: 08138.72348253
Element set: 52
Inclination: 097.9942 deg
RA of node: 198.7150 deg
Eccentricity: 0.0014115
Arg of perigee: 231.5844 deg
Mean anomaly: 128.4100 deg
Mean motion: 14.81355211 rev/day
Decay rate: -1.2e-07 rev/day^2
Epoch rev: 289
Checksum: 285
Satellite: COMPASS
Catalog number: 32787
Epoch time: 08136.83161411
Element set: 0050
Inclination: 097.9906 deg
RA of node: 196.8149 deg
Eccentricity: 0.0014852
Arg of perigee: 240.9341 deg
Mean anomaly: 119.0377 deg
Mean motion: 14.81402909 rev/day
Decay rate: 1.58e-06 rev/day^2
Epoch rev: 00261
Checksum: 294
Satellite: AAUSAT2
Catalog number: 32788
Epoch time: 08138.85653900
Element set: 44
Inclination: 097.9914 deg
RA of node: 198.8372 deg
Eccentricity: 0.0014372
Arg of perigee: 231.3827 deg
Mean anomaly: 128.6096 deg
Mean motion: 14.81510869 rev/day
Decay rate: 1.50e-06 rev/day^2
Epoch rev: 291
Checksum: 316
Satellite: DELFIC3
Catalog number: 32789
Epoch time: 08137.91270232
Element set: 0054
Inclination: 097.9933 deg
RA of node: 197.8998 deg
Eccentricity: 0.0014765
Arg of perigee: 235.7884 deg
Mean anomaly: 124.1931 deg
Mean motion: 14.81377044 rev/day
Decay rate: 2.11e-06 rev/day^2
Epoch rev: 00277
Checksum: 326
Satellite: SEEDS
Catalog number: 32791
Epoch time: 08138.18427642
Element set: 39
Inclination: 097.9948 deg
RA of node: 198.1686 deg
Eccentricity: 0.0015206
Arg of perigee: 232.7516 deg
Mean anomaly: 127.2307 deg
Mean motion: 14.81264750 rev/day
Decay rate: 1.40e-06 rev/day^2
Epoch rev: 278
Checksum: 304
Satellite: CANX-2
Catalog number: 32797
Epoch time: 08136.96730692
Element set: 0031
Inclination: 097.9945 deg
RA of node: 196.9610 deg
Eccentricity: 0.0014327
Arg of perigee: 238.4303 deg
Mean anomaly: 121.5499 deg
Mean motion: 14.81350511 rev/day
Decay rate: -1.44e-06 rev/day^2
Epoch rev: 00131
Checksum: 294
/EX
More information about the Keps
mailing list